Tracking 29892 objects as of 21-Nov-2024
HD Live streaming from Space Station
objects crossing your sky now

STARLINK-4468

Track STARLINK-4468 now!
10-day predictions
STARLINK-4468 is classified as:


NORAD ID: 53969
Int'l Code: 2022-125F
Perigee: 545.9 km
Apogee: 547.8 km
Inclination: 53.2 °
Period: 95.4 minutes
Semi major axis: 6917 km
RCS: Unknown
Launch date: October 5, 2022
Source: United States (US)
Launch site: AIR FORCE WESTERN TEST RANGE (AFWTR)
Your satellite tracking list
Your tracking list is empty




NASA's NSSDC Master Catalog

Two Line Element Set (TLE):
1 53969U 22125F   24325.02315872 -.00000528  00000-0 -15095-4 0  9999
2 53969  53.2169 194.9779 0001367  91.6233 268.4916 15.08837535117669
Source of the keplerian elements: AFSPC